Laramie, WY

1:38 PM MST on November 24, 2017 (GMT -0700)
Laramie Regional

Weather History for KLAR - May, 2014

Change the Weather History Date:

Friday, May 9, 2014

  Actual Average Record
Temperature  
Mean Temperature 39 °F 45 °F  
Max Temperature 50 °F 59 °F 75 °F (1962)
Min Temperature 27 °F 32 °F 11 °F (2002)
Degree Days  
Heating Degree Days 26 20  
Month to date heating degree days 177 189  
Since 1 July heating degree days 8012 8238  
Cooling Degree Days 0 0  
Month to date cooling degree days 0 0  
Year to date cooling degree days 0 0  
Moisture  
Dew Point 30 °F    
Average Humidity 66    
Maximum Humidity 89    
Minimum Humidity 42    
Precipitation  
Precipitation 0.01 in 0.05 in 0.63 in (1992)
Month to date precipitation 0.19 0.41  
Year to date precipitation 2.72 2.67  
Sea Level Pressure  
Sea Level Pressure 29.81 in    
Wind  
Wind Speed 14 mph (WSW)    
Max Wind Speed 35 mph    
Max Gust Speed 39 mph    
Visibility 10 miles    
Events Rain    
T = Trace of Precipitation, MM = Missing Value Source: NWS Daily Summary

Daily Weather History Graph

Daily Weather History Graph

Search for Another Location

Airport or City:

Trip Planner

Search our weather history database for the weather conditions in past years. The results will help you decide how hot, cold, wet, or windy it might be!

Date:

Astronomy

May. 09, 2014 Rise Set
Actual Time 5:50 AM MDT 8:08 PM MDT
Civil Twilight 5:19 AM MDT 8:39 PM MDT
Nautical Twilight 4:41 AM MDT 9:17 PM MDT
Astronomical Twilight 3:59 AM MDT 10:00 PM MDT
Moon 3:05 PM MDT (5/9) 2:57 AM MDT (5/9)
Length of Visible Light 15h 20m
Length of Day
14h 18m
Waxing Gibbous, 74% of the Moon is Illuminated
May 9
Waxing Gibbous
May 14
Full
May 21
Last Quarter
May 28
New
Jun 5
First Quarter

Hourly Weather History & Observations

Time (MDT) Temp. Windchill Dew Point Humidity Pressure Visibility Wind Dir Wind Speed Gust Speed Precip Events Conditions
12:53 AM 33.1 °F 25.5 °F 27.0 °F 78% 29.87 in 10.0 mi West 9.2 mph - N/A   Clear
1:53 AM 28.0 °F 19.3 °F 25.0 °F 88% 29.91 in 10.0 mi West 9.2 mph - N/A   Clear
3:53 AM 28.9 °F 19.8 °F 24.1 °F 82% 29.90 in 10.0 mi West 10.4 mph - N/A   Clear
4:53 AM 30.9 °F 21.7 °F 25.0 °F 79% 29.87 in 10.0 mi WSW 11.5 mph - N/A   Clear
5:53 AM 33.1 °F 21.2 °F 26.1 °F 75% 29.83 in 10.0 mi WSW 20.7 mph - N/A   Clear
6:53 AM 34.0 °F 24.6 °F 27.0 °F 75% 29.83 in 10.0 mi WSW 13.8 mph - N/A   Clear
7:53 AM 39.0 °F 29.9 °F 30.0 °F 70% 29.83 in 10.0 mi SW 17.3 mph - N/A   Clear
8:53 AM 44.1 °F 35.7 °F 28.9 °F 55% 29.79 in 10.0 mi WSW 20.7 mph 28.8 mph N/A   Clear
9:53 AM 46.9 °F - 27.0 °F 46% 29.78 in 10.0 mi West 20.7 mph - N/A   Clear
10:53 AM 46.9 °F - 26.1 °F 44% 29.77 in 10.0 mi West 19.6 mph 29.9 mph N/A   Mostly Cloudy
11:53 AM 48.0 °F - 27.0 °F 44% 29.76 in 10.0 mi West 11.5 mph 19.6 mph N/A   Mostly Cloudy
12:53 PM 46.9 °F - 28.0 °F 48% 29.75 in 10.0 mi Variable 5.8 mph - N/A   Overcast
1:53 PM 48.9 °F - 28.0 °F 44% 29.75 in 10.0 mi WSW 10.4 mph 20.7 mph N/A   Overcast
2:53 PM 48.0 °F - 28.0 °F 46% 29.76 in 10.0 mi West 18.4 mph 26.5 mph N/A   Overcast
3:53 PM 46.9 °F - 30.0 °F 52% 29.76 in 10.0 mi WSW 19.6 mph - N/A   Overcast
4:53 PM 48.0 °F - 30.0 °F 50% 29.73 in 10.0 mi WSW 15.0 mph 23.0 mph N/A   Overcast
5:26 PM 39.9 °F 28.8 °F 35.1 °F 83% 29.87 in 2.5 mi West 27.6 mph 35.7 mph 0.00 in Rain Light Rain
5:39 PM 39.9 °F 32.1 °F 36.0 °F 86% 29.87 in 7.0 mi WSW 13.8 mph - 0.01 in Rain Light Rain
5:53 PM 42.1 °F 35.2 °F 36.0 °F 79% 29.78 in 10.0 mi WSW 12.7 mph - 0.01 in   Mostly Cloudy
6:53 PM 45.0 °F 39.3 °F 34.0 °F 65% 29.76 in 10.0 mi WNW 11.5 mph - N/A   Mostly Cloudy
7:00 PM 45.0 °F 39.3 °F 34.0 °F 65% 29.87 in 10.0 mi WNW 11.5 mph - N/A   Mostly Cloudy
7:53 PM 39.0 °F 30.3 °F 35.1 °F 86% 29.79 in 9.0 mi SW 16.1 mph - 0.00 in Rain Light Rain
8:53 PM 39.0 °F 30.3 °F 33.1 °F 79% 29.77 in 10.0 mi WSW 16.1 mph - 0.00 in   Scattered Clouds
9:53 PM 37.0 °F 27.7 °F 32.0 °F 82% 29.80 in 10.0 mi WSW 16.1 mph - N/A   Overcast
10:53 PM 33.1 °F 24.4 °F 30.9 °F 92% 29.82 in 10.0 mi South 11.5 mph - N/A   Scattered Clouds
11:53 PM 34.0 °F 24.6 °F 28.9 °F 82% 29.79 in 10.0 mi SW 13.8 mph - N/A   Clear